FW0158 Weather Reports


time (UTC)temp
F
wind
direction
speed
knots
gust
knots
rain 1hr
in
rain 24hr
in
rain mn
in
humidity
%
barometer
mb
20260510204522 84 294 0.9 3.5 0.00 0.00 0.00 36 1015.6
20260510204053 84 320 2.6 4.3 0.00 0.00 0.00 36 1015.9
20260510201841 85 120 1.7 4.3 0.00 0.00 0.00 35 1015.9
20260510200521 83 104 2.6 4.3 0.00 0.00 0.00 38 1016.2
20260510195842 84 353 1.7 5.2 0.00 0.00 0.00 37 1016.2
20260510195202 84 65 0.9 5.2 0.00 0.00 0.00 40 1016.2
20260510193414 83 197 2.6 6.1 0.00 0.00 0.00 40 1016.2
20260510192948 84 131 2.6 6.1 0.00 0.00 0.00 36 1016.2
20260510192308 83 215 1.7 7.0 0.00 0.00 0.00 39 1016.2
20260510191411 83 190 0.9 3.5 0.00 0.00 0.00 38 1016.2
20260510190305 82 339 1.7 7.0 0.00 0.00 0.00 38 1016.6
20260510184521 82 266 2.6 6.1 0.00 0.00 0.00 39 1016.6
20260510183842 81 194 2.6 6.1 0.00 0.00 0.00 39 1016.6
20260510182521 80 205 2.6 8.7 0.00 0.00 0.00 41 1016.6
20260510181841 81 193 2.6 6.1 0.00 0.00 0.00 42 1016.6
20260510181202 81 201 2.6 6.1 0.00 0.00 0.00 45 1016.9
20260510175841 84 358 1.7 4.3 0.00 0.00 0.00 38 1016.9
20260510173841 79 311 4.3 9.6 0.00 0.00 0.00 50 1016.9
20260510173629 80 192 1.7 6.1 0.00 0.00 0.00 53 1016.9
20260510171841 80 176 2.6 7.0 0.00 0.00 0.00 52 1017.3
20260510171202 79 288 2.6 7.0 0.00 0.00 0.00 55 1017.3
20260510170733 78 287 3.5 7.0 0.00 0.00 0.00 55 1017.3
20260510170054 78 274 3.5 7.0 0.00 0.00 0.00 55 1017.6
20260510165201 78 241 2.6 5.2 0.00 0.00 0.00 59 1017.6
20260510164735 79 175 1.7 4.3 0.00 0.00 0.00 62 1017.6
20260510163841 79 169 1.7 4.3 0.00 0.00 0.00 61 1017.6
20260510163411 79 228 0.9 3.5 0.00 0.00 0.00 63 1017.6
20260510161841 77 137 1.7 3.5 0.00 0.00 0.00 65 1017.6
20260510161413 76 179 1.7 6.1 0.00 0.00 0.00 67 1017.6
20260510160307 75 329 1.7 3.5 0.00 0.00 0.00 70 1017.3
20260510155201 74 339 0.9 4.3 0.00 0.00 0.00 72 1017.3
20260510153842 72 315 2.6 5.2 0.00 0.00 0.00 77 1017.6
20260510153412 72 314 2.6 4.3 0.00 0.00 0.00 78 1017.6
20260510151841 70 284 0.9 4.3 0.00 0.00 0.00 80 1017.3
20260510151201 70 266 2.6 4.3 0.00 0.00 0.00 82 1017.6
20260510150521 69 345 0.9 2.6 0.00 0.00 0.00 82 1017.6
20260510145201 67 351 0.9 2.6 0.00 0.00 0.00 86 1017.6
20260510144521 68 360 0.9 2.6 0.00 0.00 0.00 84 1017.6
20260510143841 67 125 0.9 3.5 0.00 0.00 0.00 88 1017.3
20260510142733 66 157 0.9 2.6 0.00 0.00 0.00 89 1017.3
20260510142054 65 281 0.0 2.6 0.00 0.00 0.00 92 1017.3
20260510141414 64 188 0.9 2.6 0.00 0.00 0.00 93 1017.3
20260510140521 64 233 0.9 2.6 0.00 0.00 0.00 94 1017.3
20260510135841 64 245 0.9 3.5 0.00 0.00 0.00 95 1016.9
20260510134945 63 213 0.9 2.6 0.00 0.00 0.00 98 1017.3
20260510134052 62 117 0.9 2.6 0.00 0.00 0.00 100 1017.3
20260510133202 61 239 0.9 2.6 0.00 0.00 0.00 100 1017.3
20260510131841 61 129 0.9 1.7 0.00 0.00 0.00 100 1017.3
20260510131415 60 333 0.9 1.7 0.00 0.00 0.00 100 1017.3
20260510130521 61 356 0.9 1.7 0.00 0.00 0.00 100 1017.3
20260510125412 60 190 0.9 1.7 0.00 0.00 0.00 100 1016.9
20260510124521 59 28 0.9 1.7 0.00 0.00 0.00 100 1016.9
20260510124053 58 119 0.9 1.7 0.00 0.00 0.00 100 1016.9
20260510122521 57 104 0.9 2.6 0.00 0.00 0.00 100 1016.9
20260510121842 56 23 0.9 3.5 0.00 0.00 0.00 100 1016.9
20260510120522 57 26 2.6 4.3 0.00 0.00 0.00 100 1016.9
20260510115202 56 212 0.9 2.6 0.00 0.00 0.00 100 1015.9
20260510114946 55 229 0.9 2.6 0.00 0.00 0.00 100 1015.9
20260510112522 55 339 0.0 0.9 0.00 0.00 0.00 100 1015.6
20260510111841 55 220 0.0 0.9 0.00 0.00 0.00 100 1015.6
20260510111202 54 325 0.0 0.9 0.00 0.00 0.00 100 1015.6
20260510110052 54 262 0.9 0.9 0.00 0.00 0.00 100 1015.2
20260510105201 55 2 0.0 0.9 0.00 0.00 0.00 100 1015.2
20260510104522 55 89 0.0 0.9 0.00 0.00 0.00 100 1015.2
20260510103842 54 12 0.0 0.9 0.00 0.00 0.00 100 1015.2
20260510103202 55 32 0.9 1.7 0.00 0.00 0.00 100 1014.9
20260510102731 55 47 0.9 0.9 0.00 0.00 0.00 100 1014.9
20260510102051 55 28 0.0 1.7 0.00 0.00 0.00 100 1014.9
20260510101201 55 353 0.9 0.9 0.00 0.00 0.00 100 1014.9
20260510100521 56 324 0.0 0.9 0.00 0.00 0.00 100 1014.9
20260510100053 55 174 0.9 0.9 0.00 0.00 0.00 100 1014.5
20260510095201 55 44 0.9 0.9 0.00 0.00 0.00 100 1014.5
20260510094948 55 351 0.9 0.9 0.00 0.00 0.00 100 1014.5
20260510094055 55 30 0.9 0.9 0.00 0.00 0.00 100 1014.5
20260510093411 56 78 0.9 0.9 0.00 0.00 0.00 100 1014.2
20260510091842 56 289 0.0 0.9 0.00 0.00 0.00 100 1014.2
20260510091201 56 26 0.9 0.9 0.00 0.00 0.00 100 1014.2
20260510090522 56 44 0.9 1.7 0.00 0.00 0.00 100 1014.5
20260510084521 57 287 0.0 1.7 0.00 0.00 0.00 100 1014.2
20260510083842 56 155 0.9 1.7 0.00 0.00 0.00 100 1014.2
20260510082521 57 154 0.9 1.7 0.00 0.00 0.00 100 1014.2
20260510080734 57 274 0.0 0.9 0.00 0.00 0.00 99 1013.8
20260510075841 56 341 0.9 0.9 0.00 0.00 0.00 98 1013.8
20260510075415 57 29 0.0 1.7 0.00 0.00 0.00 98 1013.8
20260510074731 57 14 0.9 1.7 0.00 0.00 0.00 97 1013.8
20260510073842 57 93 0.9 0.9 0.00 0.00 0.00 98 1013.8
20260510072521 58 24 0.9 1.7 0.00 0.00 0.00 97 1013.8
20260510072306 58 5 0.9 1.7 0.00 0.00 0.00 94 1013.8
20260510071414 59 145 0.9 0.9 0.00 0.00 0.00 98 1013.8
20260510065201 58 16 0.0 0.9 0.00 0.00 0.00 99 1013.8
20260510064521 58 6 0.0 0.9 0.00 0.00 0.00 99 1013.8
20260510063842 58 331 0.0 0.9 0.00 0.00 0.00 98 1013.8
20260510063413 58 41 0.0 1.7 0.00 0.00 0.00 98 1013.8
20260510062054 59 92 0.0 0.9 0.00 0.00 0.00 99 1013.8
20260510061201 59 54 0.0 0.9 0.00 0.00 0.00 99 1013.8
20260510060521 59 70 0.9 0.9 0.00 0.00 0.00 99 1013.8
20260510055412 59 11 0.9 0.9 0.00 0.00 0.00 97 1013.8
20260510053842 60 121 0.9 1.7 0.00 0.00 0.00 97 1013.8
20260510052734 60 357 0.9 1.7 0.00 0.00 0.00 98 1013.8
20260510051841 60 39 0.9 1.7 0.00 0.00 0.00 98 1013.8
20260510051624 60 7 0.9 1.7 0.00 0.00 0.00 95 1013.8
20260510050731 61 50 0.9 1.7 0.00 0.00 0.00 96 1013.8
20260510050052 61 211 0.0 1.7 0.00 0.00 0.00 96 1013.8
20260510045412 61 335 0.9 2.6 0.00 0.00 0.00 93 1013.8
20260510043201 64 253 1.7 2.6 0.00 0.00 0.00 93 1013.8
20260510042735 64 204 0.9 2.6 0.00 0.00 0.00 93 1013.8
20260510042050 64 212 0.9 2.6 0.00 0.00 0.00 94 1013.8
20260510041411 63 209 0.9 1.7 0.00 0.00 0.00 94 1013.8
20260510040732 63 283 0.9 1.7 0.00 0.00 0.00 93 1013.8
20260510035841 63 202 0.0 0.9 0.00 0.00 0.00 93 1013.8
20260510034521 63 213 0.9 1.7 0.00 0.00 0.00 94 1014.2
20260510033841 63 285 0.9 1.7 0.00 0.00 0.00 93 1014.2
20260510032944 64 308 1.7 1.7 0.00 0.00 0.00 91 1014.2
20260510032306 64 338 0.9 1.7 0.00 0.00 0.00 90 1013.8
20260510031625 64 5 0.9 0.9 0.00 0.00 0.00 88 1013.8
20260510030306 65 139 0.9 3.5 0.00 0.00 0.00 87 1013.8
20260510025414 65 191 1.7 2.6 0.00 0.00 0.00 88 1013.8
20260510024521 64 222 0.0 0.9 0.00 0.00 0.00 89 1013.5
20260510023841 65 300 0.9 0.9 0.00 0.00 0.00 88 1013.5
20260510023201 65 17 0.9 0.9 0.00 0.00 0.00 87 1013.5
20260510022522 65 33 0.9 1.7 0.00 0.00 0.00 86 1013.5
20260510021412 66 38 0.9 1.7 0.00 0.00 0.00 82 1013.1
20260510020733 67 223 0.9 1.7 0.00 0.00 0.00 82 1013.1
20260510020054 67 279 0.9 2.6 0.00 0.00 0.00 81 1012.8
20260510015201 67 285 1.7 2.6 0.00 0.00 0.00 80 1012.4
20260510012732 69 215 0.9 0.9 0.00 0.00 0.00 74 1012.1
20260510012519 69 221 0.0 1.7 0.00 0.00 0.00 75 1011.8
20260510011201 70 91 0.9 1.7 0.00 0.00 0.00 72 1011.8
20260510010521 70 18 0.0 0.9 0.00 0.00 0.00 70 1011.4
20260510005841 71 309 0.0 0.9 0.00 0.00 0.00 68 1011.4
20260510005202 72 283 0.9 0.9 0.00 0.00 0.00 65 1011.4
20260510003625 75 238 0.9 1.7 0.00 0.00 0.00 61 1011.4
20260510002521 76 230 0.9 1.7 0.00 0.00 0.00 58 1011.1
20260510002053 76 280 0.9 2.6 0.00 0.00 0.00 58 1011.1
20260510001201 77 254 1.7 2.6 0.00 0.00 0.00 56 1011.1
20260509235841 77 251 2.6 3.5 0.00 0.00 0.00 55 1011.1
20260509235837 78 302 2.6 4.3 0.00 0.00 0.00 53 1011.1
20260509233841 78 306 2.6 5.2 0.00 0.00 0.00 51 1010.7
20260509233202 78 295 3.5 5.2 0.00 0.00 0.00 51 1010.7
20260509232521 78 298 2.6 5.2 0.00 0.00 0.00 52 1011.1
20260509231841 78 303 2.6 5.2 0.00 0.00 0.00 50 1011.1
20260509230521 78 311 2.6 5.2 0.00 0.00 0.00 49 1010.7
20260509225842 78 302 2.6 4.3 0.00 0.00 0.00 52 1010.7
20260509224732 77 247 2.6 6.1 0.00 0.00 0.00 53 1010.7
20260509223842 77 249 2.6 5.2 0.00 0.00 0.00 52 1010.7
20260509223200 77 273 3.5 7.0 0.00 0.00 0.00 52 1010.7
20260509221841 77 237 3.5 7.8 0.00 0.00 0.00 52 1010.7
20260509221202 78 258 1.7 7.0 0.00 0.00 0.00 52 1010.7
20260509220944 77 279 4.3 7.8 0.00 0.00 0.00 50 1010.7
20260509220051 78 250 3.5 7.8 0.00 0.00 0.00 51 1010.4
20260509214946 78 262 4.3 7.0 0.00 0.00 0.00 50 1010.4
20260509213842 78 282 2.6 8.7 0.00 0.00 0.00 50 1010.4
20260509213414 78 304 5.2 8.7 0.00 0.00 0.00 48 1010.4
20260509212522 78 288 4.3 8.7 0.00 0.00 0.00 46 1010.4
20260509210521 78 307 5.2 8.7 0.00 0.00 0.00 46 1010.4
20260509205841 78 326 3.5 8.7 0.00 0.00 0.00 46 1010.7
20260509205413 79 327 4.3 7.8 0.00 0.00 0.00 46 1010.7